Cleveland Rgnl Jetp, Clevelan, TN

12:45 PM EST on December 18, 2017 (GMT -0500)
Cleveland Rgnl Jetp, Clevelan

Weather History for KRZR - January, 2014

Change the Weather History Date:

Saturday, January 11, 2014

  Actual Average (KMMI) Record (KMMI)
Temperature  
Mean Temperature 51 °F -  
Max Temperature 60 °F 43 °F 64 °F (2017)
Min Temperature 42 °F 24 °F 10 °F (2016)
Degree Days  
Heating Degree Days 14    
Growing Degree Days 1 (Base 50)    
Moisture  
Dew Point 44 °F    
Average Humidity 74    
Maximum Humidity 100    
Minimum Humidity 31    
Precipitation  
Precipitation 0.00 in - - ()
Sea Level Pressure  
Sea Level Pressure 29.78 in    
Wind  
Wind Speed 8 mph (SW)    
Max Wind Speed 21 mph    
Max Gust Speed 31 mph    
Visibility 9 miles    
Events      
Averages and records for this station are not official NWS values.
T = Trace of Precipitation, MM = Missing Value Source: NWS Daily Summary

Daily Weather History Graph

Daily Weather History Graph

Search for Another Location

Airport or City:

Trip Planner

Search our weather history database for the weather conditions in past years. The results will help you decide how hot, cold, wet, or windy it might be!

Date:

Astronomy

Jan. 11, 2014 Rise Set
Actual Time 7:48 AM EST 5:46 PM EST
Civil Twilight 7:20 AM EST 6:14 PM EST
Nautical Twilight 6:48 AM EST 6:45 PM EST
Astronomical Twilight 6:18 AM EST 7:16 PM EST
Moon 2:28 PM EST (1/11) 3:54 AM EST (1/11)
Length of Visible Light 10h 54m
Length of Day
9h 58m
Waxing Gibbous, 83% of the Moon is Illuminated
Jan 11
Waxing Gibbous
Jan 15
Full
Jan 24
Last Quarter
Jan 30
New
Feb 6
First Quarter

Hourly Weather History & Observations

Time (EST) Temp. Windchill Dew Point Humidity Pressure Visibility Wind Dir Wind Speed Gust Speed Precip Events Conditions
12:15 AM 44.6 °F - 44.6 °F 100% 29.92 in 1.5 mi Calm Calm - N/A   Overcast
12:35 AM 44.6 °F - 44.6 °F 100% 29.90 in 0.8 mi Calm Calm - N/A   Overcast
12:55 AM 44.6 °F - 44.6 °F 100% 29.89 in 0.8 mi Calm Calm - N/A   Overcast
1:15 AM 51.8 °F - 51.8 °F 100% 29.86 in 7.0 mi South 8.1 mph - N/A   Overcast
1:35 AM 53.6 °F - 53.6 °F 100% 29.84 in 10.0 mi SSW 9.2 mph - N/A   Overcast
1:55 AM 53.6 °F - 53.6 °F 100% 29.84 in 10.0 mi SSW 12.7 mph - N/A   Overcast
2:15 AM 53.6 °F - 53.6 °F 100% 29.82 in 10.0 mi SSW 9.2 mph - N/A   Mostly Cloudy
2:35 AM 53.6 °F - 51.8 °F 94% 29.81 in 5.0 mi SSW 12.7 mph - N/A   Overcast
2:55 AM 53.6 °F - 51.8 °F 94% 29.80 in - SSW 10.4 mph - N/A   Unknown
3:15 AM 53.6 °F - 51.8 °F 94% 29.79 in 8.0 mi South 15.0 mph - N/A   Overcast
3:35 AM 53.6 °F - 51.8 °F 94% 29.78 in 10.0 mi South 13.8 mph - N/A   Mostly Cloudy
3:55 AM 55.4 °F - 53.6 °F 94% 29.75 in 10.0 mi South 17.3 mph - N/A   Overcast
4:15 AM 55.4 °F - 53.6 °F 94% 29.74 in 10.0 mi South 16.1 mph - N/A   Overcast
4:35 AM 57.2 °F - 53.6 °F 88% 29.70 in 10.0 mi South 16.1 mph - N/A   Overcast
4:55 AM 57.2 °F - 55.4 °F 94% 29.69 in 10.0 mi South 15.0 mph - N/A   Overcast
5:15 AM 57.2 °F - 55.4 °F 94% 29.69 in 10.0 mi South 19.6 mph - N/A   Overcast
5:35 AM 57.2 °F - 55.4 °F 94% 29.68 in 10.0 mi SSW 20.7 mph 31.1 mph N/A   Overcast
5:55 AM 55.4 °F - 51.8 °F 88% 29.70 in 4.0 mi West 10.4 mph - N/A   Overcast
6:15 AM 53.6 °F - 51.8 °F 94% 29.72 in 2.0 mi West 10.4 mph - N/A   Overcast
6:35 AM 53.6 °F - 51.8 °F 94% 29.71 in 2.5 mi West 8.1 mph - N/A   Overcast
6:55 AM 53.6 °F - 53.6 °F 100% 29.73 in 1.8 mi WSW 11.5 mph - N/A   Overcast
7:15 AM 55.4 °F - 53.6 °F 94% 29.70 in 5.0 mi SW 10.4 mph - N/A   Overcast
7:35 AM 55.4 °F - 53.6 °F 94% 29.73 in 7.0 mi SSW 6.9 mph - N/A   Overcast
7:55 AM 55.4 °F - 53.6 °F 94% 29.74 in 5.0 mi SSW 5.8 mph - N/A   Overcast
8:15 AM 55.4 °F - 53.6 °F 94% 29.76 in 4.0 mi SSW 5.8 mph - N/A   Overcast
8:35 AM 55.4 °F - 53.6 °F 94% 29.77 in 4.0 mi SSW 5.8 mph - N/A   Overcast
8:55 AM 53.6 °F - 53.6 °F 100% 29.77 in 7.0 mi South 4.6 mph - N/A   Overcast
9:15 AM 53.6 °F - 53.6 °F 100% 29.75 in 10.0 mi SSE 4.6 mph - N/A   Mostly Cloudy
9:35 AM 55.4 °F - 53.6 °F 94% 29.74 in 10.0 mi Variable 3.5 mph - N/A   Mostly Cloudy
9:55 AM 55.4 °F - 53.6 °F 94% 29.75 in 10.0 mi SSW 5.8 mph - N/A   Partly Cloudy
10:15 AM 55.4 °F - 53.6 °F 94% 29.76 in 10.0 mi WSW 5.8 mph - N/A   Clear
10:35 AM 55.4 °F - 53.6 °F 94% 29.77 in 10.0 mi SW 5.8 mph - N/A   Scattered Clouds
10:55 AM 55.4 °F - 53.6 °F 94% 29.78 in 10.0 mi SW 6.9 mph - N/A   Overcast
11:15 AM 55.4 °F - 53.6 °F 94% 29.78 in 10.0 mi SW 9.2 mph - N/A   Scattered Clouds
11:35 AM 55.4 °F - 53.6 °F 94% 29.77 in 10.0 mi SSW 10.4 mph - N/A   Partly Cloudy
11:55 AM 55.4 °F - 51.8 °F 88% 29.76 in 10.0 mi SW 10.4 mph - N/A   Clear
12:15 PM 57.2 °F - 50.0 °F 77% 29.75 in 10.0 mi SSW 9.2 mph - N/A   Partly Cloudy
12:35 PM 57.2 °F - 48.2 °F 72% 29.74 in 10.0 mi SSW 10.4 mph - N/A   Partly Cloudy
12:55 PM 57.2 °F - 48.2 °F 72% 29.72 in 10.0 mi SSW 11.5 mph - N/A   Partly Cloudy
1:15 PM 59.0 °F - 48.2 °F 67% 29.72 in 10.0 mi SSW 11.5 mph - N/A   Clear
1:35 PM 60.8 °F - 46.4 °F 59% 29.70 in 10.0 mi SSW 15.0 mph - N/A   Clear
1:55 PM 60.8 °F - 44.6 °F 55% 29.70 in 10.0 mi SW 15.0 mph - N/A   Partly Cloudy
2:15 PM 60.8 °F - 42.8 °F 52% 29.69 in 10.0 mi SW 18.4 mph - N/A   Partly Cloudy
2:35 PM 60.8 °F - 39.2 °F 45% 29.68 in 10.0 mi WSW 15.0 mph - N/A   Clear
2:55 PM 60.8 °F - 37.4 °F 42% 29.67 in 10.0 mi SW 12.7 mph - N/A   Clear
3:15 PM 60.8 °F - 37.4 °F 42% 29.67 in 10.0 mi SW 13.8 mph - N/A   Clear
3:35 PM 60.8 °F - 33.8 °F 36% 29.68 in 10.0 mi WSW 12.7 mph - N/A   Partly Cloudy
3:55 PM 60.8 °F - 33.8 °F 36% 29.68 in 10.0 mi SW 12.7 mph - N/A   Clear
4:15 PM 60.8 °F - 30.2 °F 31% 29.69 in 10.0 mi SW 17.3 mph - N/A   Clear
4:35 PM 59.0 °F - 33.8 °F 39% 29.70 in 10.0 mi WSW 12.7 mph - N/A   Clear
4:55 PM 57.2 °F - 30.2 °F 36% 29.71 in 10.0 mi WSW 13.8 mph - N/A   Clear
5:15 PM 57.2 °F - 30.2 °F 36% 29.72 in 10.0 mi WSW 12.7 mph - N/A   Partly Cloudy
5:35 PM 55.4 °F - 30.2 °F 38% 29.73 in 10.0 mi WSW 11.5 mph - N/A   Scattered Clouds
5:55 PM 55.4 °F - 32.0 °F 41% 29.75 in 10.0 mi WSW 9.2 mph - N/A   Clear
6:15 PM 53.6 °F - 32.0 °F 44% 29.75 in 10.0 mi WSW 9.2 mph - N/A   Partly Cloudy
6:35 PM 53.6 °F - 33.8 °F 47% 29.77 in 10.0 mi West 8.1 mph - N/A   Mostly Cloudy
6:55 PM 53.6 °F - 33.8 °F 47% 29.79 in 10.0 mi WNW 8.1 mph - N/A   Mostly Cloudy
7:15 PM 51.8 °F - 35.6 °F 54% 29.80 in 10.0 mi West 8.1 mph - N/A   Overcast
7:35 PM 51.8 °F - 35.6 °F 54% 29.81 in 10.0 mi West 4.6 mph - N/A   Mostly Cloudy
7:55 PM 51.8 °F - 35.6 °F 54% 29.83 in 10.0 mi WNW 5.8 mph - N/A   Mostly Cloudy
8:15 PM 50.0 °F - 35.6 °F 58% 29.84 in 10.0 mi WNW 8.1 mph - N/A   Partly Cloudy
8:35 PM 48.2 °F - 33.8 °F 58% 29.85 in 10.0 mi WNW 9.2 mph - N/A   Clear
8:55 PM 48.2 °F - 33.8 °F 58% 29.86 in 10.0 mi West 5.8 mph - N/A   Clear
9:15 PM 48.2 °F - 33.8 °F 58% 29.88 in 10.0 mi WNW 6.9 mph - N/A   Clear
9:35 PM 46.4 °F 43.5 °F 33.8 °F 62% 29.90 in 10.0 mi West 5.8 mph - N/A   Clear
9:55 PM 46.4 °F 44.3 °F 33.8 °F 62% 29.91 in 10.0 mi West 4.6 mph - N/A   Clear
10:15 PM 46.4 °F 42.9 °F 33.8 °F 62% 29.92 in 10.0 mi West 6.9 mph - N/A   Clear
10:35 PM 44.6 °F 40.7 °F 33.8 °F 66% 29.93 in 10.0 mi West 6.9 mph - N/A   Clear
10:55 PM 44.6 °F 42.2 °F 33.8 °F 66% 29.94 in 10.0 mi West 4.6 mph - N/A   Clear
11:15 PM 44.6 °F - 33.8 °F 66% 29.94 in 10.0 mi Calm Calm - N/A   Clear
11:35 PM 42.8 °F 39.3 °F 33.8 °F 70% 29.95 in 10.0 mi Variable 5.8 mph - N/A   Clear
11:55 PM 44.6 °F 41.4 °F 33.8 °F 66% 29.97 in 10.0 mi West 5.8 mph - N/A   Clear